Regional Weather Roundup
Issued by NWS

Home | Current Version | Previous Version | Graphics & Text | Print | Product List | Glossary On
Versions: 1 2 3 4 5 6 7 8 9 10 11 12 13 14 15 16 17 18 19 20 21 22 23 24 25 26 27 28 29 30 31 32 33 34 35 36 37 38 39 40 41 42 43 44 45 46 47 48 49 50
000
ASUS43 KIND 240109
RWRIN

WEATHER ROUNDUP FOR INDIANA
NATIONAL WEATHER SERVICE INDIANAPOLIS IN
900 PM EDT WED APR 23 2014

NOTE: "FAIR" INDICATES FEW OR NO CLOUDS BELOW 12,000 FEET WITH NO
SIGNIFICANT WEATHER AND/OR OBSTRUCTIONS TO VISIBILITY.

* - STATION DOES NOT REPORT WEATHER SUCH AS PRECIPITATION OR FOG.

+ - STATION NOT QUALITY CONTROLLED BY THE NATIONAL WEATHER SERVICE.
    USE DATA WITH CAUTION...ESPECIALLY DEWPOINT AND RELATIVE
    HUMIDITY OBSERVATIONS.

INZ001>003-010>013-019-020-240200-
NORTHWEST INDIANA

CITY           SKY/WX    TMP DP  RH WIND       PRES   REMARKS
GARY /AIRPORT/ CLOUDY    41  30  65 NE6G17    30.13F
LA PORTE +     CLOUDY    40  28  63 N8        30.11S
MICHIGAN CITY+ CLOUDY    37  30  75 N5        30.12F
MONTICELLO +   PTCLDY    56  29  35 CALM      30.06S
RENSSELAER +   MOCLDY    48  32  53 N9        30.09S
VALPARAISO     CLOUDY    40  27  59 N7        30.11S

$$

LMZ046-743>745-240200-
SOUTHERN LAKE MICHIGAN

STATION/POSITION TIME  TEMP WIND        PRES
                       AIR  DIR/SP/G
                 (UTC) (F)  (DEG/KT/KT) (MB)
MICHIGAN CITY    0100   37   10/ 10/ 11   N/A

$$

INZ004-005-014>016-021>024-240200-
NORTH CENTRAL INDIANA

CITY           SKY/WX    TMP DP  RH WIND       PRES   REMARKS
ELKHART        CLOUDY    50  30  46 NW7       30.10
GOSHEN         CLOUDY    53  28  38 E5        30.08R
LOGANSPORT +   MOCLDY    54  27  35 NE3       30.08S
PERU/GRISSOM   PTCLDY    51  29  41 NE5       30.07S
ROCHESTER +    MOCLDY    52  32  46 E3        30.09R
SOUTH BEND     CLOUDY    46  30  53 NW9       30.12R
WARSAW +       CLOUDY    52  30  43 CALM      30.08S

$$

INZ006>009-017-018-025>027-240200-
NORTHEAST INDIANA

CITY           SKY/WX    TMP DP  RH WIND       PRES   REMARKS
ANGOLA *+      CLEAR     50  28  43 CALM      30.08S
AUBURN +       MOCLDY    52  23  32 N3        30.09R
FORT WAYNE     MOCLDY    51  28  41 E3        30.09R

$$

INZ028-029-035-036-043>045-051>053-240200-
WEST CENTRAL INDIANA

CITY           SKY/WX    TMP DP  RH WIND       PRES   REMARKS
GREENCASTLE +  PTCLDY    54  34  47 NE3       30.07R
LAFAYETTE      PTCLDY    53  28  38 E5        30.07S
TERRE HAUTE    MOCLDY    54  35  48 NE3       30.06R

$$

INZ030>032-037>040-046>048-054>057-064-065-240200-
CENTRAL INDIANA

CITY           SKY/WX    TMP DP  RH WIND       PRES   REMARKS
CP ATTERBURY + CLEAR     50  32  50 E3        30.07S
COLUMBUS       CLEAR     52  32  46 NE7       30.07S
INDIANAPOLIS   MOCLDY    53  29  39 NE7       30.06S
-EAGLE CREEK   PTCLDY    55  27  34 NE3       30.06S
KOKOMO *+      PTCLDY    52  30  43 CALM      30.08R
MARION +       PTCLDY    53  25  33 E3        30.08S
MT COMFORT *+  PTCLDY    50  36  57 E5        30.07F
SHELBYVILLE    PTCLDY    56  31  38 NE6       30.06S
ZIONSVILLE +   PTCLDY    52  29  40 CALM      30.08R

$$

INZ033-034-041-042-049-050-058-059-240200-
EAST CENTRAL INDIANA

CITY           SKY/WX    TMP DP  RH WIND       PRES   REMARKS
MUNCIE           N/A     51  30  44 CALM      30.08R

$$

INZ060-061-067>069-081>083-085>088-240200-
SOUTHWEST INDIANA

CITY           SKY/WX    TMP DP  RH WIND       PRES   REMARKS
EVANSVILLE     CLEAR     60  34  37 N3        30.03S
HUNTINGBURG *+ CLEAR     55  34  44 NE5       30.04S
WASHINGTON +   PTCLDY    55  36  48 CALM      30.03S

$$

INZ062-063-066-070>080-084-089>092-240200-
SOUTH CENTRAL AND SOUTHEAST INDIANA

CITY           SKY/WX    TMP DP  RH WIND       PRES   REMARKS
BLOOMINGTON    PTCLDY    55  27  34 NE5       30.05R

$$




USA.gov is the U.S. government's official web portal to all federal, state and local government web resources and services.